STARLINK-4105 (53168 NORAD) Tracking and Keplerian Element Data

This shows tracking and keplerian element data for the satellite.

Feedback or suggestion? Click here.




ElementValue
Catalog53168
NameSTARLINK-4105
Epoch Orbit1185
Epoch Day270.25001157
Epoch Year2022
RAAN58.1183
Inclination53.2177
Eccentricity0.0001638
Argument of Perigee49.3369
Mean Anonmoly104.7145
Mean Motion15.20599254
Decay Rate-0.01068223
L11 53168U 22083AN 22270.25001157 -.01068223 00000+0 -52599-1 0 9996
L22 53168 53.2177 58.1183 0001638 49.3369 104.7145 15.20599254 11857

Live tracking and technical data element details for STARLINK-4105 (NORAD 53168). STARLINK-4105 can be tracked NOW for your location showing map with azimuth and elevation plus other details from your city location.

Track the satellite on the map from your city or location and see movement details for azimuth, elevation, latitude, longitude, range, height, and movement on the map or in text.







IsCatalogInMostPopularTable: catalog: 53168, numindb: 3
Update: records affected: 1



GetName: 53168 STARLINK-4105

Hit Count: updated at: Wed, 28 Sep 2022 22:17:46 GMT